Regional Weather Roundup
Issued by NWS

Home | Current Version | Previous Version | Text Only | Print | Product List | Glossary Off
Versions: 1 2 3 4 5 6 7 8 9 10 11 12 13 14 15 16 17 18 19 20 21 22 23 24 25 26 27 28 29 30 31 32 33 34 35 36 37 38 39 40 41 42 43 44 45 46 47 48 49 50

000
ASUS43 KMPX 220710
RWRMN
WEATHER ROUNDUP FOR MINNESOTA
NATIONAL WEATHER SERVICE TWIN CITIES/CHANHASSEN MN
200 AM CDT WED OCT 22 2014


NOTE: "FAIR" INDICATES FEW OR NO CLOUDS BELOW 12,000 FEET WITH NO
SIGNIFICANT WEATHER AND/OR OBSTRUCTIONS TO VISIBILITY. N/A MEANS
CURRENT SKY AND/OR WEATHER CONDITIONS ARE NOT AVAILABLE.

MNZ060>063-068>070-220800-
   Twin Cities Metro

CITY           SKY/WX    TMP DP  RH WIND       PRES   REMARKS
TWIN CITIES    CLEAR     43  36  76 SE10      30.19R
ST PAUL        CLEAR     45  38  76 SE12      30.20R
CRYSTAL        CLEAR     47  37  68 SE10      30.16S
BLAINE         CLEAR     46  39  76 SE9G17    30.17S
LAKEVILLE      CLEAR     41  37  87 SE9       30.18S
EDEN PRAIRIE   CLEAR     44  37  76 SE12      30.16R
SOUTH ST PAUL  CLEAR     45  37  71 SE9       30.19S
LAKE ELMO      FAIR      43  37  81 SE7       30.20S
$$
MNZ001>005-007-008-013>017-022>024-027-028-220800-
   Northwest Minnesota

CITY           SKY/WX    TMP DP  RH WIND       PRES   REMARKS
BEMIDJI        CLEAR     46  38  75 SE15      30.02F
HALLOCK        CLEAR     54  41  62 S24       29.83S
ROSEAU         CLEAR     52  41  66 S15       29.92R
WARROAD        CLEAR     50  43  76 S12G22    29.94S
THIEF RVR FALL CLEAR     52  39  62 SE16G23   29.92S
CROOKSTON      CLEAR     54  43  66 S24G31    29.89S
FOSSTON        CLEAR     48  37  66 SE16G25   29.96S
DETROIT LAKES  CLEAR     48  41  76 SE15      29.99S
MOORHEAD       CLEAR     55  43  62 SE21G30   29.92S
PARK RAPIDS    CLEAR     45  38  76 SE13      30.04F
MAHNOMEN       FAIR      51  40  65 SE23G33   29.95S
$$
MNZ006-009>011-018-025>026-220800-
   North Central Minnesota

CITY           SKY/WX    TMP DP  RH WIND       PRES   REMARKS
BAUDETTE       CLEAR     44  36  73 SE8       30.00S
FLAG ISLAND    CLEAR     46  39  76 SE26      29.94F
INTL FALLS     CLEAR     40  35  83 SE10      30.07F
WASKISH        CLEAR     46  37  71 SE16G23   30.01S
BIG FORK       CLEAR     41  36  81 SE7       30.10S
LONGVILLE      CLEAR     43  37  81 SE5       30.08F
GRAND RAPIDS   CLEAR     37  34  87 SE8       30.12S
CRANE LAKE     CLEAR     36  36 100 SE5       30.15F
ORR            CLEAR     37  34  87 SE8       30.10S
COOK           CLEAR     37  36  93 SE5       30.14F
WALKER         FAIR      46  38  73 SE12G18   30.05S
$$
MNZ012-019>021-037-220800-
   Northeast Minnesota

CITY           SKY/WX    TMP DP  RH WIND       PRES   REMARKS
DULUTH         CLEAR     41  35  79 S8        30.19R
ELY            CLEAR     37  36  93 S6        30.17S
HIBBING        CLEAR     36  33  89 SE7       30.15F
EVELETH        CLEAR     36  36 100 SE5       30.18S
DULUTH HARBOR  CLEAR     43  37  81 CALM      30.21F
TWO HARBORS    CLEAR     39  28  65 CALM      30.20S
SILVER BAY     CLEAR     39  37  93 CALM      30.21R
GRAND MARAIS     N/A     38  35  89 NE3       30.26F
G MARAIS ARPRT MOCLDY    36  32  87 SE6       30.23S
$$
MNZ029>031-032-039>041-046>048-054>057-064-220800-
   West Central Minnesota

CITY           SKY/WX    TMP DP  RH WIND       PRES   REMARKS
FERGUS FALLS   CLEAR     54  37  54 SE20G25   29.99S
WHEATON        CLEAR     50  39  66 SE20      29.97S
MORRIS         CLEAR     48  41  76 SE16      30.00S
ALEXANDRIA     CLEAR     48  40  73 SE15      30.06R
ELBOW LAKE     FAIR      51  40  68 SE24G31   29.99S
WADENA         CLEAR     45  37  76 SE12      30.04S
GLENWOOD       CLEAR     48  41  76 SE15G21   30.06S
APPLETON       PTCLDY    52  41  66 SE13G21   30.00S
BENSON         CLEAR     48  39  71 S16       30.03S
ORTONVILLE     PTCLDY    50  41  71 SE13      29.98R
MADISON        PTCLDY    54  43  66 SE15      29.99F
WILLMAR        FAIR      48  39  71 SE15      30.08S
$$
MNZ033>034-036-042>043-049>051-058-059-220800-
   Central Minnesota

CITY           SKY/WX    TMP DP  RH WIND       PRES   REMARKS
ST CLOUD       CLEAR     48  38  68 SE10      30.12S
SAUK CENTRE    FAIR      46  39  77 SE12      30.09R
PAYNESVILLE    CLEAR     45  38  78 E13       30.10S
AITKIN         CLEAR     48  39  71 S13       30.11S
PINE RIVER     CLEAR     45  37  76 SE9       30.12S
BRAINERD       CLEAR     45  38  76 S12       30.11S
STAPLES        CLEAR     45  37  76 SE10G18   30.07S
LONG PRAIRIE   FAIR      45  37  76 SE14      30.08S
LITTLE FALLS   CLEAR     43  36  75 SE7       30.11R
LITCHFIELD     CLEAR     48  39  71 SE10G16   30.12R
BUFFALO        CLEAR     47  37  70 SE8       30.15S
MAPLE LAKE     CLEAR     47  40  78 SE7       30.14F
$$
MNZ037-044-045-052-053-220800-
   East Central Minnesota

CITY           SKY/WX    TMP DP  RH WIND       PRES   REMARKS
PRINCETON      FAIR      43  37  81 SE6       30.16R
MORA           CLEAR     37  32  81 SE3       30.18S
CAMBRIDGE      CLEAR     46  36  66 SE7       30.15S
RUSH CITY      CLEAR     42  36  78 SE7       30.18S
MOOSE LAKE     CLEAR     41  36  81 S7        30.16S
HINCKLEY       FAIR      39  36  87 CALM      30.18S
CLOQUET        CLEAR     37  34  87 E3        30.18R
MCGREGOR       CLEAR     37  36  93 SE7       30.15S
$$
MNZ071>073-080-081-089-090-097-098-220800-
   Southwest Minnesota

CITY           SKY/WX    TMP DP  RH WIND       PRES   REMARKS
MONTEVIDEO     CLEAR     50  41  71 S12G18    30.04R
GRANITE FALLS  CLEAR     49  40  73 SE13G18   30.06S
CANBY          PTCLDY    55  43  63 S15G21    30.00S
MARSHALL       CLEAR     54  39  58 S21G26    30.02S
REDWOOD FALLS  CLEAR     48  39  71 SE15      30.08S
OLIVIA         CLEAR     50  41  71 SE14      30.08R
PIPESTONE      CLEAR     52  43  71 S15G21    30.02S
WINDOM         CLEAR     46  39  76 SE14      30.10S
WORTHINGTON    CLEAR     48  39  71 S15G21    30.09S
JACKSON        CLEAR     46  37  71 S13G18    30.11S
TRACY          CLEAR     51  42  70 S15G23    30.05S
SLAYTON        CLEAR     48  41  75 SE17      30.06S
$$
MNZ065>067-074>077-082>085-091>093-220800-
   South Central Minnesota

CITY           SKY/WX    TMP DP  RH WIND       PRES   REMARKS
MANKATO        CLEAR     46  34  61 S14       30.15R
NEW ULM        CLEAR     45  39  81 SE12      30.12F
ST JAMES       CLEAR     46  37  71 SE13      30.13F
FAIRMONT       CLEAR     45  36  70 SE14      30.14R
GLENCOE        CLEAR     46  40  80 SE7       30.13S
FARIBAULT      CLEAR     45  37  76 SE10G18   30.18R
OWATONNA       CLEAR     45  37  76 SE10G17   30.18S
WASECA         CLEAR     43  34  70 SE12G18   30.19R
ALBERT LEA     CLEAR     43  37  81 SE10G16   30.18S
$$
MNZ078>079-086>088-094>096-220800-
   Southeast Minnesota

CITY           SKY/WX    TMP DP  RH WIND       PRES   REMARKS
ROCHESTER      CLEAR     40  36  86 SE12      30.22S
RED WING       CLEAR     45  37  76 SE10      30.22S
STANTON        CLEAR     45  37  73 SE12      30.18S
DODGE CENTER   PTCLDY    39  37  93 SE14      30.19F
WINONA         CLEAR     41  36  81 SE6       30.26S
AUSTIN         CLEAR     41  37  87 SE8       30.20S
PRESTON        CLEAR     38  35  89 SE7       30.23S
$$
ABBREVIATIONS USED IN REMARKS
   TC - TEMPERATURES IN CELSIUS
  WCI - WIND CHILL INDEX
   HX - HEAT INDEX
  VSB - VISIBILITY
$$



USA.gov is the U.S. government's official web portal to all federal, state and local government web resources and services.